COSMOS 2557 (706K)

Last updated on Tue Jul 01 2025 00:02:33 GMT+0000 (Coordinated Universal Time)

1 52984U 22075A 25181.16344147 -.00000073 00000+0 00000+0 0 9990 2 52984 64.5003 326.8662 0010717 275.6050 84.2677 2.13102240 23219
UTC large
Height (km)
Speed (km/s)
/
Latitude / Longitude
Inclination (degrees)
Orbital Period (minutes)
Azimuth
Elevation
Range (km)
Doppler Factor

Next 0 passes for location: London (51.5072 / 0.1276)

Sorry there are no passes over London.